Miscellaneous Local Product
Issued by NWS Hastings, NE

Home | Current Version | Previous Version | Text Only | Print | Product List | Glossary Off
Versions: 1 2 3 4 5 6 7 8 9 10 11 12 13 14 15 16 17 18 19 20 21 22 23 24 25 26 27 28 29 30 31 32 33 34 35 36 37 38 39 40 41 42 43 44 45 46 47 48 49 50

000
AXUS43 KGID 280602
MISGRI

GID CWA HOURLY WEATHER ROUNDUP
NATIONAL WEATHER SERVICE HASTINGS NE
100 AM CDT MON JUL 28 2014

NOTE: "FAIR" INDICATES FEW OR NO CLOUDS BELOW 12,000 FEET WITH NO
SIGNIFICANT WEATHER AND/OR OBSTRUCTIONS TO VISIBILITY.

...SOUTH CENTRAL NEBRASKA...

CITY           SKY/WX    TMP DP  RH WIND       PRES   REMARKS
GRAND ISLAND   CLEAR     62  57  83 CALM      30.26R
HASTINGS       CLEAR     63  56  78 NE5       30.25R
KEARNEY        CLEAR     61  54  77 N6        30.27R
ORD            CLEAR     60  55  83 NE5       30.27R
YORK             N/A     59  59 100 N7        30.25R
AURORA         CLEAR     62  60  93 NE3       30.25S
LEXINGTON      CLEAR     61  55  80 NE6       30.28R
HOLDREGE       CLEAR     62  56  81 CALM      30.26R
HEBRON         CLEAR     65  58  77 CALM      30.23R

...NEBRASKA PANHANDLE...

CITY           SKY/WX    TMP DP  RH WIND       PRES   REMARKS
CHADRON        CLEAR     60  50  69 N3        30.32R
ALLIANCE       CLEAR     59  48  67 SE5       30.33S
SCOTTSBLUFF    CLEAR     67  50  54 E10       30.32R
SIDNEY         MOCLDY    65  48  54 SE8       30.35R

...WESTERN AND NORTH CENTRAL NEBRASKA...

CITY           SKY/WX    TMP DP  RH WIND       PRES   REMARKS
VALENTINE      CLEAR     60  51  72 NE3       30.31S
AINSWORTH      CLEAR     58  52  80 CALM      30.31R
ONEILL         CLEAR     58  53  83 NE6       30.30R
BROKEN BOW     CLEAR     61  53  75 CALM      30.29R
IMPERIAL       PTCLDY    64  51  62 SE3       30.31R
NORTH PLATTE   CLEAR     57  49  74 E3        30.29S
MCCOOK         PTCLDY    65  53  65 CALM      30.27R

...EASTERN NEBRASKA...

CITY           SKY/WX    TMP DP  RH WIND       PRES   REMARKS
NORFOLK        CLEAR     60  54  80 NW5       30.25R
SO SIOUX CITY  PTCLDY    59  56  89 W3        30.22R
ALBION         CLEAR     60  55  85 CALM      30.27R
OMAHA EPPLEY   CLEAR     64  55  72 NW9       30.20R
OFFUTT AFB     CLEAR     66  58  73 N7        30.19R
MILLARD        CLEAR     66  56  70 N5        30.20S
LINCOLN        CLEAR     66  57  72 N12       30.23R
NEBRASKA CITY  CLEAR     62  57  84 N3        30.19R
BEATRICE       CLEAR     62  58  87 N6        30.20S
FALLS CITY     NOT AVBL

...NORTHERN KANSAS...

CITY           SKY/WX    TMP DP  RH WIND       PRES   REMARKS
GOODLAND       CLOUDY    67  51  56 S9        30.31F
HILL CITY      PTCLDY    66  54  65 CALM      30.25R
NORTON         CLEAR     63  48  59 CALM      30.25R
PHILLIPSBURG   CLEAR     66  54  63 CALM      30.23S
SMITH CENTER   CLEAR     64  55  72 NE8       30.23R
HAYS           CLEAR     66  52  59 NE5       30.24R
RUSSELL        PTCLDY    67  54  63 NE6       30.21R
CONCORDIA      CLEAR     67  59  75 N5        30.21R
SALINA         CLEAR     74  55  51 NE5       30.19S
TOPEKA         CLEAR     69  58  67 N7        30.16R



USA.gov is the U.S. government's official web portal to all federal, state and local government web resources and services.